Location: ??
(35.4627°N, 139.3695°E)
Time: 14:32:10
(UTC+00:00)

Meteor 1-10 Rocket - Pass Details

Date: 25 November 2020
Orbit: 836 x 910 km, 81.3° (Epoch: 20 January)

Event Time Altitude Azimuth Distance (km) Brightness Sun altitude
Rises 20:59:14 0° 352° (N) 3,392 7.0 -6.3°
Reaches altitude 10° 21:01:39 10° 352° (N) 2,457 6.3 -5.9°
Maximum altitude 21:07:13 87° 83° (E) 849 4.3 -4.8°
Drops below altitude 10° 21:12:50 10° 172° (S) 2,471 7.1 -3.8°
Sets 21:15:15 0° 172° (S) 3,413 7.8 -3.3°
